| time (UTC) | temp C | wind direction | speed KPH | gust KPH | rain 1hr cm | rain 24hr cm | rain mn cm | humidity % | barometer mb |
| 20260504050017 | 15 | 213 | 0.0 | 8.0 | 0.00 | 0.00 | 0.00 | 61 | 1006.0 |
| 20260504044532 | 15 | 209 | 1.6 | 11.3 | 0.00 | 0.00 | 0.00 | 60 | 1005.9 |
| 20260504043020 | 15 | 215 | 0.0 | 12.9 | 0.00 | 0.00 | 0.00 | 60 | 1005.9 |
| 20260504041515 | 15 | 195 | 0.0 | 4.8 | 0.00 | 0.00 | 0.00 | 60 | 1006.0 |
| 20260504040012 | 15 | 225 | 0.0 | 6.4 | 0.00 | 0.00 | 0.00 | 60 | 1005.9 |
| 20260504034524 | 15 | 193 | 0.0 | 8.0 | 0.00 | 0.00 | 0.00 | 59 | 1006.1 |
| 20260504033012 | 15 | 218 | 1.6 | 6.4 | 0.00 | 0.00 | 0.00 | 58 | 1006.3 |
| 20260504031514 | 16 | 205 | 1.6 | 6.4 | 0.00 | 0.00 | 0.00 | 58 | 1006.4 |
| 20260504030014 | 16 | 194 | 1.6 | 9.7 | 0.00 | 0.00 | 0.00 | 57 | 1006.4 |
| 20260504024518 | 16 | 225 | 1.6 | 4.8 | 0.00 | 0.00 | 0.00 | 56 | 1006.5 |
| 20260504023014 | 16 | 234 | 0.0 | 1.6 | 0.00 | 0.00 | 0.00 | 56 | 1006.5 |
| 20260504021513 | 16 | 234 | 0.0 | 3.2 | 0.00 | 0.00 | 0.00 | 55 | 1006.4 |
| 20260504020016 | 16 | 234 | 0.0 | 3.2 | 0.00 | 0.00 | 0.00 | 54 | 1006.3 |
| 20260504014516 | 16 | 238 | 0.0 | 0.0 | 0.00 | 0.00 | 0.00 | 53 | 1006.2 |
| 20260504013022 | 17 | 238 | 0.0 | 0.0 | 0.00 | 0.00 | 0.00 | 51 | 1005.9 |
| 20260504011516 | 17 | 238 | 0.0 | 0.0 | 0.00 | 0.00 | 0.00 | 49 | 1005.8 |
| 20260504010016 | 18 | 238 | 0.0 | 4.8 | 0.00 | 0.00 | 0.00 | 47 | 1005.7 |
| 20260504004516 | 18 | 224 | 0.0 | 3.2 | 0.00 | 0.00 | 0.00 | 45 | 1005.6 |
| 20260504003011 | 19 | 246 | 0.0 | 3.2 | 0.00 | 0.00 | 0.00 | 44 | 1005.8 |
| 20260504001518 | 20 | 242 | 0.0 | 11.3 | 0.00 | 0.00 | 0.00 | 43 | 1005.7 |
| 20260504000020 | 20 | 240 | 1.6 | 14.5 | 0.00 | 0.00 | 0.00 | 42 | 1005.8 |
| 20260503234520 | 20 | 196 | 0.0 | 17.7 | 0.00 | 0.00 | 0.00 | 41 | 1005.8 |
| 20260503233019 | 20 | 244 | 1.6 | 25.7 | 0.00 | 0.00 | 0.00 | 39 | 1005.8 |
| 20260503231516 | 21 | 295 | 3.2 | 20.9 | 0.00 | 0.00 | 0.00 | 41 | 1005.8 |
| 20260503230021 | 21 | 281 | 3.2 | 27.4 | 0.00 | 0.00 | 0.00 | 40 | 1005.9 |
| 20260503224519 | 20 | 188 | 6.4 | 24.1 | 0.00 | 0.00 | 0.00 | 41 | 1006.1 |
| 20260503223021 | 20 | 210 | 4.8 | 33.8 | 0.00 | 0.00 | 0.00 | 40 | 1006.2 |
| 20260503221531 | 20 | 211 | 8.0 | 22.5 | 0.00 | 0.00 | 0.00 | 40 | 1006.2 |
| 20260503220019 | 20 | 201 | 4.8 | 32.2 | 0.00 | 0.00 | 0.00 | 41 | 1006.3 |
| 20260503214525 | 20 | 175 | 6.4 | 27.4 | 0.00 | 0.00 | 0.00 | 41 | 1006.5 |
| 20260503213030 | 20 | 166 | 6.4 | 30.6 | 0.00 | 0.00 | 0.00 | 42 | 1006.8 |
| 20260503211525 | 19 | 130 | 8.0 | 24.1 | 0.00 | 0.00 | 0.00 | 41 | 1007.0 |
| 20260503210021 | 20 | 232 | 9.7 | 32.2 | 0.00 | 0.00 | 0.00 | 40 | 1007.2 |
| 20260503204524 | 18 | 252 | 4.8 | 33.8 | 0.00 | 0.00 | 0.00 | 42 | 1007.5 |
| 20260503203024 | 19 | 188 | 8.0 | 27.4 | 0.00 | 0.00 | 0.00 | 42 | 1008.0 |
| 20260503201523 | 18 | 160 | 9.7 | 32.2 | 0.00 | 0.00 | 0.00 | 46 | 1008.2 |
| 20260503200013 | 18 | 172 | 12.9 | 33.8 | 0.00 | 0.00 | 0.00 | 47 | 1008.7 |
| 20260503194526 | 17 | 227 | 9.7 | 29.0 | 0.00 | 0.00 | 0.00 | 49 | 1009.1 |
| 20260503193022 | 17 | 169 | 6.4 | 25.7 | 0.00 | 0.00 | 0.00 | 51 | 1009.2 |
| 20260503191504 | 17 | 163 | 4.8 | 25.7 | 0.00 | 0.00 | 0.00 | 50 | 1009.2 |
| 20260503190017 | 16 | 196 | 9.7 | 30.6 | 0.00 | 0.00 | 0.00 | 50 | 1009.3 |
| 20260503184520 | 16 | 202 | 3.2 | 32.2 | 0.00 | 0.00 | 0.00 | 51 | 1009.4 |
| 20260503183030 | 16 | 196 | 9.7 | 25.7 | 0.00 | 0.00 | 0.00 | 50 | 1009.5 |
| 20260503181542 | 15 | 204 | 9.7 | 35.4 | 0.00 | 0.00 | 0.00 | 52 | 1010.0 |
| 20260503180008 | 14 | 192 | 8.0 | 40.2 | 0.00 | 0.00 | 0.00 | 55 | 1010.2 |
| 20260503174511 | 14 | 172 | 8.0 | 27.4 | 0.00 | 0.00 | 0.00 | 55 | 1010.8 |
| 20260503173037 | 14 | 200 | 8.0 | 32.2 | 0.00 | 0.00 | 0.00 | 57 | 1011.2 |
| 20260503171520 | 13 | 153 | 6.4 | 25.7 | 0.00 | 0.00 | 0.00 | 61 | 1011.8 |
| 20260503081521 | 8 | 208 | 0.0 | 9.7 | 0.00 | 0.00 | 0.00 | 54 | 1014.3 |